Time,TemperatureF,DewpointF,PressureIn,WindDirection,WindDirectionDegrees,WindSpeedMPH,WindSpeedGustMPH,Humidity,HourlyPrecipIn,Conditions,Clouds,dailyrainin,SolarRadiationWatts/m^2,SoftwareType,DateUTC
2013-01-16 00:22:00,19.0,11.0,-100.00,East,93,4.0,6.0,72,0.00,,,0.00,1.000000,,2013-01-16 08:22:00,
2013-01-16 00:32:00,19.0,11.0,-100.00,East,93,4.0,6.0,72,0.00,,,0.00,1.000000,,2013-01-16 08:32:00,
2013-01-16 00:42:00,19.0,11.0,-100.00,East,93,4.0,6.0,72,0.00,,,0.00,1.000000,,2013-01-16 08:42:00,
2013-01-16 00:52:00,19.0,11.0,-100.00,East,93,4.0,6.0,72,0.00,,,0.00,1.000000,,2013-01-16 08:52:00,
2013-01-16 01:22:00,18.0,11.0,-100.00,ENE,74,4.0,6.0,74,0.00,,,0.00,1.000000,,2013-01-16 09:22:00,
2013-01-16 01:32:00,18.0,11.0,-100.00,ENE,74,4.0,6.0,74,0.00,,,0.00,1.000000,,2013-01-16 09:32:00,
2013-01-16 01:42:00,18.0,11.0,-100.00,ENE,74,4.0,6.0,74,0.00,,,0.00,1.000000,,2013-01-16 09:42:00,
2013-01-16 01:52:00,18.0,11.0,-100.00,ENE,74,4.0,6.0,74,0.00,,,0.00,1.000000,,2013-01-16 09:52:00,
2013-01-16 02:22:00,16.0,12.0,-100.00,East,79,4.0,7.0,83,0.00,,,0.00,1.000000,,2013-01-16 10:22:00,
2013-01-16 02:32:00,16.0,12.0,-100.00,East,79,4.0,7.0,83,0.00,,,0.00,1.000000,,2013-01-16 10:32:00,
2013-01-16 02:42:00,16.0,12.0,-100.00,East,79,4.0,7.0,83,0.00,,,0.00,1.000000,,2013-01-16 10:42:00,
2013-01-16 02:52:00,16.0,12.0,-100.00,East,79,4.0,7.0,83,0.00,,,0.00,1.000000,,2013-01-16 10:52:00,
2013-01-16 03:22:00,17.0,11.0,-100.00,ESE,104,2.0,6.0,76,0.00,,,0.00,1.000000,,2013-01-16 11:22:00,
2013-01-16 03:32:00,17.0,11.0,-100.00,ESE,104,2.0,6.0,76,0.00,,,0.00,1.000000,,2013-01-16 11:32:00,
2013-01-16 03:42:00,17.0,11.0,-100.00,ESE,104,2.0,6.0,76,0.00,,,0.00,1.000000,,2013-01-16 11:42:00,
2013-01-16 03:52:00,17.0,11.0,-100.00,ESE,104,2.0,6.0,76,0.00,,,0.00,1.000000,,2013-01-16 11:52:00,
2013-01-16 04:22:00,11.0,8.0,-100.00,ENE,67,6.0,8.0,87,0.00,,,-99.99,1.000000,,2013-01-16 12:22:00,
2013-01-16 04:33:00,11.0,8.0,-100.00,ENE,67,6.0,8.0,87,0.00,,,-99.99,1.000000,,2013-01-16 12:33:00,
2013-01-16 04:42:00,11.0,8.0,-100.00,ENE,67,6.0,8.0,87,0.00,,,-99.99,1.000000,,2013-01-16 12:42:00,
2013-01-16 04:52:00,11.0,8.0,-100.00,ENE,67,6.0,8.0,87,0.00,,,-99.99,1.000000,,2013-01-16 12:52:00,
2013-01-16 05:22:00,12.0,8.0,-100.00,East,81,5.0,8.0,84,0.00,,,0.00,1.000000,,2013-01-16 13:22:00,
2013-01-16 05:32:00,12.0,8.0,-100.00,East,81,5.0,8.0,84,0.00,,,0.00,1.000000,,2013-01-16 13:32:00,
2013-01-16 05:42:00,12.0,8.0,-100.00,East,81,5.0,8.0,84,0.00,,,0.00,1.000000,,2013-01-16 13:42:00,
2013-01-16 05:52:00,12.0,8.0,-100.00,East,81,5.0,8.0,84,0.00,,,0.00,1.000000,,2013-01-16 13:52:00,
2013-01-16 06:22:00,12.0,8.0,-100.00,ENE,72,6.0,8.0,83,0.00,,,0.00,1.000000,,2013-01-16 14:22:00,
2013-01-16 06:32:00,12.0,8.0,-100.00,ENE,72,6.0,8.0,83,0.00,,,0.00,1.000000,,2013-01-16 14:32:00,
2013-01-16 06:42:00,12.0,8.0,-100.00,ENE,72,6.0,8.0,83,0.00,,,0.00,1.000000,,2013-01-16 14:42:00,
2013-01-16 06:52:00,12.0,8.0,-100.00,ENE,72,6.0,8.0,83,0.00,,,0.00,1.000000,,2013-01-16 14:52:00,
2013-01-16 07:22:00,9.0,6.0,-100.00,ENE,67,6.0,10.0,88,0.00,,,0.00,1.000000,,2013-01-16 15:22:00,
2013-01-16 07:32:00,9.0,6.0,-100.00,ENE,67,6.0,10.0,88,0.00,,,0.00,1.000000,,2013-01-16 15:32:00,
2013-01-16 07:43:00,9.0,6.0,-100.00,ENE,67,6.0,10.0,88,0.00,,,0.00,1.000000,,2013-01-16 15:43:00,
2013-01-16 07:52:00,9.0,6.0,-100.00,ENE,67,6.0,10.0,88,0.00,,,0.00,1.000000,,2013-01-16 15:52:00,
2013-01-16 08:22:00,7.0,4.0,-100.00,ENE,71,7.0,11.0,86,0.00,,,0.00,5.000000,,2013-01-16 16:22:00,
2013-01-16 08:32:00,7.0,4.0,-100.00,ENE,71,7.0,11.0,86,0.00,,,0.00,5.000000,,2013-01-16 16:32:00,
2013-01-16 08:42:00,7.0,4.0,-100.00,ENE,71,7.0,11.0,86,0.00,,,0.00,5.000000,,2013-01-16 16:42:00,
2013-01-16 08:52:00,7.0,4.0,-100.00,ENE,71,7.0,11.0,86,0.00,,,0.00,5.000000,,2013-01-16 16:52:00,
2013-01-16 09:22:00,12.0,6.0,-100.00,ENE,69,6.0,10.0,78,0.00,,,0.00,57.000000,,2013-01-16 17:22:00,
2013-01-16 09:33:00,12.0,6.0,-100.00,ENE,69,6.0,10.0,78,0.00,,,0.00,57.000000,,2013-01-16 17:33:00,
2013-01-16 09:43:00,12.0,6.0,-100.00,ENE,69,6.0,10.0,78,0.00,,,0.00,57.000000,,2013-01-16 17:43:00,
2013-01-16 09:53:00,12.0,6.0,-100.00,ENE,69,6.0,10.0,78,0.00,,,0.00,57.000000,,2013-01-16 17:53:00,
2013-01-16 10:12:00,18.0,10.0,-100.00,ENE,62,4.0,8.0,70,0.00,,,0.00,157.000000,,2013-01-16 18:12:00,
2013-01-16 10:22:00,18.0,10.0,-100.00,ENE,62,4.0,8.0,70,0.00,,,0.00,157.000000,,2013-01-16 18:22:00,
2013-01-16 10:33:00,18.0,10.0,-100.00,ENE,62,4.0,8.0,70,0.00,,,0.00,157.000000,,2013-01-16 18:33:00,
2013-01-16 10:42:00,18.0,10.0,-100.00,ENE,62,4.0,8.0,70,0.00,,,0.00,157.000000,,2013-01-16 18:42:00,
2013-01-16 10:52:00,18.0,10.0,-100.00,ENE,62,4.0,8.0,70,0.00,,,0.00,157.000000,,2013-01-16 18:52:00,
2013-01-16 11:23:00,31.0,15.0,-100.00,East,79,2.0,5.0,51,0.00,,,0.00,74.000000,,2013-01-16 19:23:00,
2013-01-16 11:33:00,31.0,15.0,-100.00,East,79,2.0,5.0,51,0.00,,,0.00,74.000000,,2013-01-16 19:33:00,
2013-01-16 11:42:00,31.0,15.0,-100.00,East,79,2.0,5.0,51,0.00,,,0.00,74.000000,,2013-01-16 19:42:00,
2013-01-16 11:52:00,31.0,15.0,-100.00,East,79,2.0,5.0,51,0.00,,,0.00,74.000000,,2013-01-16 19:52:00,
2013-01-16 12:42:00,39.0,16.0,-100.00,WSW,238,2.0,6.0,39,0.00,,,0.00,463.000000,,2013-01-16 20:42:00,
2013-01-16 12:52:00,39.0,16.0,-100.00,WSW,238,2.0,6.0,39,0.00,,,0.00,463.000000,,2013-01-16 20:52:00,
2013-01-16 13:22:00,33.0,15.0,-100.00,WSW,243,4.0,6.0,47,0.00,,,0.00,508.000000,,2013-01-16 21:22:00,
2013-01-16 13:33:00,33.0,15.0,-100.00,WSW,243,4.0,6.0,47,0.00,,,0.00,508.000000,,2013-01-16 21:33:00,
2013-01-16 14:22:00,37.0,17.0,-100.00,WSW,249,4.0,6.0,43,0.00,,,0.00,477.000000,,2013-01-16 22:22:00,
2013-01-16 14:33:00,37.0,17.0,-100.00,WSW,249,4.0,6.0,43,0.00,,,0.00,477.000000,,2013-01-16 22:33:00,
2013-01-16 14:43:00,37.0,17.0,-100.00,WSW,249,4.0,6.0,43,0.00,,,0.00,477.000000,,2013-01-16 22:43:00,
2013-01-16 14:52:00,37.0,17.0,-100.00,WSW,249,4.0,6.0,43,0.00,,,0.00,477.000000,,2013-01-16 22:52:00,
2013-01-16 15:22:00,36.0,17.0,-100.00,WSW,242,5.0,6.0,46,0.00,,,0.00,389.000000,,2013-01-16 23:22:00,
2013-01-16 15:32:00,36.0,17.0,-100.00,WSW,242,5.0,6.0,46,0.00,,,0.00,389.000000,,2013-01-16 23:32:00,
2013-01-16 15:42:00,36.0,17.0,-100.00,WSW,242,5.0,6.0,46,0.00,,,0.00,389.000000,,2013-01-16 23:42:00,
2013-01-16 15:52:00,36.0,17.0,-100.00,WSW,242,5.0,6.0,46,0.00,,,0.00,389.000000,,2013-01-16 23:52:00,
2013-01-16 16:22:00,36.0,16.0,-100.00,WSW,243,3.0,7.0,43,0.00,,,0.00,258.000000,,2013-01-17 00:22:00,
2013-01-16 16:32:00,36.0,16.0,-100.00,WSW,243,3.0,7.0,43,0.00,,,0.00,258.000000,,2013-01-17 00:32:00,
2013-01-16 16:42:00,36.0,16.0,-100.00,WSW,243,3.0,7.0,43,0.00,,,0.00,258.000000,,2013-01-17 00:42:00,
2013-01-16 16:52:00,36.0,16.0,-100.00,WSW,243,3.0,7.0,43,0.00,,,0.00,258.000000,,2013-01-17 00:52:00,
2013-01-16 17:22:00,31.0,15.0,-100.00,SW,223,2.0,4.0,51,0.00,,,0.00,90.000000,,2013-01-17 01:22:00,
2013-01-16 17:32:00,31.0,15.0,-100.00,SW,223,2.0,4.0,51,0.00,,,0.00,90.000000,,2013-01-17 01:32:00,
2013-01-16 17:42:00,31.0,15.0,-100.00,SW,223,2.0,4.0,51,0.00,,,0.00,90.000000,,2013-01-17 01:42:00,
2013-01-16 17:52:00,31.0,15.0,-100.00,SW,223,2.0,4.0,51,0.00,,,0.00,90.000000,,2013-01-17 01:52:00,
2013-01-16 18:22:00,28.0,16.0,-100.00,SW,230,3.0,4.0,60,0.00,,,0.00,3.000000,,2013-01-17 02:22:00,
2013-01-16 18:32:00,28.0,16.0,-100.00,SW,230,3.0,4.0,60,0.00,,,0.00,3.000000,,2013-01-17 02:32:00,
2013-01-16 18:42:00,28.0,16.0,-100.00,SW,230,3.0,4.0,60,0.00,,,0.00,3.000000,,2013-01-17 02:42:00,
2013-01-16 18:52:00,28.0,16.0,-100.00,SW,230,3.0,4.0,60,0.00,,,0.00,3.000000,,2013-01-17 02:52:00,
2013-01-16 19:22:00,25.0,13.0,-100.00,SSW,192,2.0,4.0,61,0.00,,,0.00,1.000000,,2013-01-17 03:22:00,
2013-01-16 19:32:00,25.0,13.0,-100.00,SSW,192,2.0,4.0,61,0.00,,,0.00,1.000000,,2013-01-17 03:32:00,
2013-01-16 19:42:00,25.0,13.0,-100.00,SSW,192,2.0,4.0,61,0.00,,,0.00,1.000000,,2013-01-17 03:42:00,
2013-01-16 19:52:00,25.0,13.0,-100.00,SSW,192,2.0,4.0,61,0.00,,,0.00,1.000000,,2013-01-17 03:52:00,
2013-01-16 20:22:00,24.0,14.0,-100.00,East,90,2.0,3.0,64,0.00,,,0.00,1.000000,,2013-01-17 04:22:00,
2013-01-16 20:32:00,24.0,14.0,-100.00,East,90,2.0,3.0,64,0.00,,,0.00,1.000000,,2013-01-17 04:32:00,
2013-01-16 20:42:00,24.0,14.0,-100.00,East,90,2.0,3.0,64,0.00,,,0.00,1.000000,,2013-01-17 04:42:00,
2013-01-16 20:52:00,24.0,14.0,-100.00,East,90,2.0,3.0,64,0.00,,,0.00,1.000000,,2013-01-17 04:52:00,
2013-01-16 21:22:00,25.0,15.0,-100.00,ENE,73,5.0,6.0,66,0.00,,,0.00,1.000000,,2013-01-17 05:22:00,
2013-01-16 21:32:00,25.0,15.0,-100.00,ENE,73,5.0,6.0,66,0.00,,,0.00,1.000000,,2013-01-17 05:32:00,
2013-01-16 21:42:00,25.0,15.0,-100.00,ENE,73,5.0,6.0,66,0.00,,,0.00,1.000000,,2013-01-17 05:42:00,
2013-01-16 21:52:00,25.0,15.0,-100.00,ENE,73,5.0,6.0,66,0.00,,,0.00,1.000000,,2013-01-17 05:52:00,
2013-01-16 22:22:00,24.0,14.0,-100.00,ENE,78,3.0,6.0,65,0.00,,,0.00,1.000000,,2013-01-17 06:22:00,
2013-01-16 22:32:00,24.0,14.0,-100.00,ENE,78,3.0,6.0,65,0.00,,,0.00,1.000000,,2013-01-17 06:32:00,
2013-01-16 22:42:00,24.0,14.0,-100.00,ENE,78,3.0,6.0,65,0.00,,,0.00,1.000000,,2013-01-17 06:42:00,
2013-01-16 22:52:00,24.0,14.0,-100.00,ENE,78,3.0,6.0,65,0.00,,,0.00,1.000000,,2013-01-17 06:52:00,
2013-01-16 23:22:00,21.0,15.0,-100.00,ENE,73,5.0,6.0,77,0.00,,,0.00,1.000000,,2013-01-17 07:22:00,
2013-01-16 23:32:00,21.0,15.0,-100.00,ENE,73,5.0,6.0,77,0.00,,,0.00,1.000000,,2013-01-17 07:32:00,
2013-01-16 23:42:00,21.0,15.0,-100.00,ENE,73,5.0,6.0,77,0.00,,,0.00,1.000000,,2013-01-17 07:42:00,
2013-01-16 23:52:00,21.0,15.0,-100.00,ENE,73,5.0,6.0,77,0.00,,,0.00,1.000000,,2013-01-17 07:52:00,